Location: Brno
(49.2000°N, 16.6330°E)
Time: 06:18:04
(UTC+02:00)

Iridium 2 - Visible Passes

Search period start: 02 September 2014 00:00
Search period end: 12 September 2014 00:00
Orbit: 535 x 548 km, 85.5° (Epoch: 01 September)

Date Brightness Start Highest point End Pass type
(mag) Time Alt. Az. Time Alt. Az. Time Alt. Az.
02 Sep 4.2 20:37:07 10° SSW 20:41:05 67° W 20:45:05 10° N visible
03 Sep 4.2 20:30:16 10° SSW 20:34:14 68° W 20:38:14 10° N visible
04 Sep 4.2 20:23:25 10° SSW 20:27:23 69° W 20:31:23 10° N visible
05 Sep 4.2 20:16:34 10° SSW 20:20:32 70° W 20:24:32 10° N visible
06 Sep 4.1 20:09:42 10° S 20:13:40 72° W 20:17:40 10° N visible
07 Sep 4.1 20:02:49 10° S 20:06:48 73° W 20:10:48 10° N visible
08 Sep 4.1 19:55:57 10° S 19:59:55 74° W 20:03:55 10° N visible
09 Sep 4.1 19:49:04 10° S 19:53:02 75° W 19:57:02 10° N visible
10 Sep 7.2 05:44:44 10° NNE 05:47:11 16° ENE 05:49:38 10° ESE visible
10 Sep 4.1 19:42:11 10° S 19:46:09 76° W 19:50:09 10° N visible
11 Sep 7.3 05:37:52 10° NNE 05:40:17 16° ENE 05:42:41 10° ESE visible
